#timestamp,LO_Frequency,Hit,StdDev 
1560636015.1,286046998.4,N
1560636035.9,286046999.0,N
1560636055.7,286046996.9,N
1560636075.6,286046999.4,N
1560636095.4,286046997.2,N
1560636115.2,286046999.6,N
1560636135.1,286046996.5,N
1560636136.0,286046996.5,N
1560636155.8,286046999.1,N
1560636175.7,286046999.1,N
1560636195.5,286046999.2,N
1560636215.3,286046999.1,N
1560636235.2,286046999.3,N
1560636255.0,286046997.2,N
1560636255.9,286046997.2,N
1560636275.8,286046996.8,Y
1560636295.6,286047000.6,P
1560636315.4,286047001.2,N
1560636335.3,286046998.1,N
1560636355.1,286047000.6,N
1560636375.9,286046999.7,N
1560636395.7,286047002.5,N
1560636415.5,286046999.9,N
1560636435.4,286047000.4,N
1560636455.2,286046999.8,N
1560636475.0,286047000.0,N
1560636475.9,286047000.0,N
1560636495.8,286046999.9,N
1560636515.6,286047002.6,N
1560636535.5,286047001.0,N
1560636555.3,286047000.3,N
1560636575.1,286046998.1,N
1560636595.9,286047000.1,N
1560636615.7,286047000.4,N
1560636635.5,286047000.2,N
1560636655.4,286046998.1,N
1560636675.2,286046998.4,N
1560636695.0,286046998.3,N
1560636696.0,286046998.3,N
1560636715.8,286046998.8,N
1560636735.6,286046997.3,N
1560636755.5,286046997.1,N
1560636775.3,286046998.8,N
1560636795.1,286046996.7,N
1560636815.9,286046997.5,N
1560636835.7,286046997.8,N
1560636855.6,286046997.1,N
1560636875.4,286046997.0,N
1560636895.3,286046998.6,N
1560636915.1,286047001.0,N
1560636916.0,286047001.0,N
1560636935.8,286046997.1,N
1560636955.7,286046997.0,N
1560636975.5,286047001.2,N
1560636995.3,286047001.1,N
1560637015.2,286047000.9,N
1560637035.0,286046998.2,N
1560637035.9,286046998.2,N
1560637055.8,286046998.7,N
1560637075.6,286046997.3,N
1560637095.4,286046997.3,N
1560637115.3,286046997.1,N
1560637135.1,286046998.3,N
1560637155.9,286046998.7,N
1560637175.7,286046998.4,N
1560637195.5,286046998.5,N
1560637215.4,286046999.3,N
1560637235.2,286046996.9,N
1560637255.0,286046998.1,N
1560637255.9,286046998.1,N
1560637275.8,286046998.9,N
1560637295.6,286046998.6,N
1560637315.5,286046996.6,N
1560637335.3,286046997.0,N
1560637355.1,286046996.5,N
1560637375.9,286046999.3,N
1560637395.7,286046997.2,N
1560637415.6,286046999.5,N
1560637435.4,286046997.3,N
1560637455.2,286046999.2,N
1560637475.1,286046998.5,N
1560637476.0,286046998.5,N
1560637495.8,286047001.2,N
1560637515.6,286046999.8,N
1560637535.5,286046999.8,N
1560637555.3,286047001.0,N
1560637575.2,286047000.9,N
1560637595.9,286047000.7,N
1560637615.7,286047000.0,N
1560637635.6,286047000.6,N
1560637655.4,286047000.1,N
1560637675.2,286047001.0,N
1560637695.1,286047001.7,N
1560637696.0,286047001.7,N
1560637715.8,286046999.7,N
1560637735.7,286046999.7,N
1560637755.5,286047002.4,N
1560637775.3,286047002.8,N
1560637795.2,286047000.6,N
1560637815.0,286047002.0,N
1560637815.9,286047002.0,N
1560637835.7,286047002.2,N
1560637855.6,286047002.1,N
1560637875.4,286047002.4,N
1560637895.3,286047002.5,N
1560637915.1,286047001.5,N
1560637916.0,286047001.5,N
1560637935.8,286047002.0,N
1560637955.7,286046999.7,N
1560637975.5,286047001.6,N
1560637995.3,286047002.5,N
1560638015.2,286047002.6,N
1560638035.0,286047002.8,N
1560638035.9,286047002.8,N
1560638055.8,286047000.4,N
1560638075.6,286047000.4,N
1560638095.4,286047002.7,N
1560638115.3,286047002.3,N
1560638135.1,286046999.9,N
1560638155.8,286047001.0,N
1560638175.7,286047000.9,N
1560638195.5,286047000.4,N
1560638215.4,286047000.3,N
1560638235.2,286047000.1,N
1560638255.0,286047001.7,N
1560638255.9,286047001.7,N
1560638275.8,286047001.3,N
1560638295.6,286047001.9,N
1560638315.5,286047001.9,N
1560638335.3,286047001.3,N
1560638355.1,286047002.5,N
1560638375.9,286047000.1,N
1560638395.7,286047000.0,N
1560638415.5,286047002.7,N
1560638435.4,286047002.3,N
1560638455.2,286046999.8,N
1560638475.1,286047002.4,N
1560638476.0,286047002.4,N
1560638495.8,286047000.2,N
1560638515.6,286047001.9,N
1560638535.5,286047002.0,N
1560638555.3,286047002.3,N
1560638575.1,286047002.3,N
1560638595.9,286047002.5,N
1560638615.7,286047002.3,N
1560638635.6,286047001.5,N
1560638655.4,286047004.4,Y
1560638675.2,286046999.7,P
1560638695.1,286047000.2,N
1560638696.0,286047000.2,N
1560638715.8,286047002.5,Y
1560638735.7,286047002.2,P
1560638755.5,286047002.5,N
1560638775.3,286047001.8,N
1560638795.2,286047002.1,N
1560638815.0,286047000.8,N
1560638815.9,286047000.8,N
1560638835.8,286046998.4,N
1560638855.6,286046999.6,N
1560638875.4,286046998.6,N
1560638895.3,286046998.3,N
1560638915.1,286047000.6,N
1560638935.8,286046998.3,N
1560638955.7,286046999.4,N
1560638975.5,286046999.0,N
1560638995.3,286046998.2,N
1560639015.2,286046998.5,N
1560639035.0,286046998.3,N
1560639035.9,286046998.3,N
1560639055.8,286046996.5,N
1560639075.6,286046996.9,N
1560639095.4,286046997.5,N
1560639115.3,286046998.0,N
1560639135.1,286046995.3,N
1560639155.9,286046996.7,N
1560639175.7,286046996.7,N
1560639195.5,286046996.5,N
1560639215.4,286046997.2,N
1560639235.2,286046997.5,N
1560639255.0,286046995.1,N
1560639256.0,286046995.1,N
1560639275.8,286046995.5,N
1560639295.6,286046996.4,N
1560639315.5,286046993.6,Y
1560639335.3,286046996.8,P
1560639355.1,286046997.0,P
1560639375.9,286046999.6,N
1560639395.7,286046996.9,N
1560639415.6,286046997.1,N
1560639435.4,286046996.7,Y
1560639455.2,286047000.9,P
1560639475.1,286047000.4,N
1560639476.0,286047000.4,N
1560639495.8,286047000.0,N
1560639515.7,286047000.5,N
1560639535.5,286047000.5,N
1560639555.3,286047000.7,N
1560639575.2,286047000.9,N
1560639595.0,286046999.8,N
1560639595.9,286046999.8,N
